FW6620 Weather Reports


time (UTC)temp
C
wind
direction
speed
KPH
gust
KPH
rain 1hr
cm
rain 24hr
cm
rain mn
cm
humidity
%
barometer
mb
20260902082046 26 0 0.0 0.0 0.00 0.00 0.00 79 1015.4
20260902081603 26 0 0.0 0.0 0.00 0.00 0.00 78 1015.5
20260902081047 26 0 0.0 0.0 0.00 0.00 0.00 78 1015.5
20260902080547 27 0 0.0 0.0 0.00 0.00 0.00 78 1015.5
20260902080059 27 0 0.0 0.0 0.00 0.00 0.00 77 1015.5
20260902075546 27 0 0.0 0.0 0.00 0.00 0.00 77 1015.4
20260902075048 27 0 0.0 0.0 0.00 0.00 0.00 76 1015.4
20260902074610 27 0 0.0 0.0 0.00 0.00 0.00 76 1015.4
20260902074046 27 0 0.0 0.0 0.00 0.00 0.00 76 1015.5
20260902073547 27 0 0.0 0.0 0.00 0.00 0.00 75 1015.5
20260902073055 27 0 0.0 0.0 0.00 0.00 0.00 75 1015.5
20260902072547 27 0 0.0 0.0 0.00 0.00 0.00 75 1015.5
20260902072047 27 0 0.0 0.0 0.00 0.00 0.00 74 1015.7
20260902071602 28 0 0.0 0.0 0.00 0.00 0.00 74 1015.7
20260902071048 28 0 0.0 0.0 0.00 0.00 0.00 74 1015.7
20260902070547 28 0 0.0 0.0 0.00 0.00 0.00 73 1015.7
20260902065547 28 0 0.0 3.2 0.00 0.00 0.00 73 1015.7
20260902065047 28 0 0.0 1.6 0.00 0.00 0.00 73 1015.7
20260902064558 28 0 0.0 1.6 0.00 0.00 0.00 73 1015.7
20260902064046 28 0 0.0 0.0 0.00 0.00 0.00 73 1015.7
20260902063546 28 0 0.0 0.0 0.00 0.00 0.00 72 1015.6
20260902063116 29 0 0.0 1.6 0.00 0.00 0.00 72 1015.6
20260902062547 29 0 0.0 1.6 0.00 0.00 0.00 71 1015.5
20260902062046 29 0 0.0 1.6 0.00 0.00 0.00 71 1015.6
20260902061608 29 0 0.0 1.6 0.00 0.00 0.00 71 1015.6
20260902061048 29 0 0.0 3.2 0.00 0.00 0.00 71 1015.5
20260902060546 29 0 0.0 4.8 0.00 0.00 0.00 71 1015.6
20260902060113 29 0 1.6 4.8 0.00 0.00 0.00 71 1015.6
20260902055546 29 64 0.0 6.4 0.00 0.00 0.00 70 1015.7
20260902055047 29 0 0.0 6.4 0.00 0.00 0.00 70 1015.7
20260902054611 29 0 0.0 4.8 0.00 0.00 0.00 70 1015.6
20260902054048 30 0 0.0 4.8 0.00 0.00 0.00 70 1015.5
20260902053547 30 63 0.0 4.8 0.00 0.00 0.00 70 1015.6
20260902053107 30 0 0.0 4.8 0.00 0.00 0.00 69 1015.5
20260902052551 30 0 0.0 1.6 0.00 0.00 0.00 69 1015.6
20260902052047 30 0 0.0 4.8 0.00 0.00 0.00 69 1015.5
20260902051603 30 0 0.0 4.8 0.00 0.00 0.00 69 1015.6
20260902051047 30 0 0.0 3.2 0.00 0.00 0.00 68 1015.4
20260902050547 30 0 0.0 3.2 0.00 0.00 0.00 68 1015.5
20260902050103 30 0 0.0 3.2 0.00 0.00 0.00 68 1015.6
20260902045547 30 70 0.0 4.8 0.00 0.00 0.00 67 1015.5
20260902045047 30 0 0.0 6.4 0.00 0.00 0.00 67 1015.5
20260902044618 30 0 1.6 6.4 0.00 0.00 0.00 67 1015.4
20260902044046 30 0 0.0 4.8 0.00 0.00 0.00 66 1015.4
20260902043545 30 82 0.0 4.8 0.00 0.00 0.00 66 1015.5
20260902043109 31 0 0.0 4.8 0.00 0.00 0.00 66 1015.5
20260902042549 31 0 0.0 4.8 0.00 0.00 0.00 65 1015.5
20260902042046 31 66 0.0 4.8 0.00 0.00 0.00 65 1015.5
20260902041608 31 65 0.0 4.8 0.00 0.00 0.00 65 1015.6
20260902041046 31 0 0.0 9.7 0.00 0.00 0.00 64 1015.5
20260902040546 31 62 0.0 9.7 0.00 0.00 0.00 64 1015.4
20260902040105 31 62 1.6 9.7 0.00 0.00 0.00 64 1015.5
20260902035547 31 0 0.0 3.2 0.00 0.00 0.00 63 1015.3
20260902035046 31 0 0.0 6.4 0.00 0.00 0.00 63 1015.3
20260902034609 31 0 0.0 6.4 0.00 0.00 0.00 63 1015.3
20260902034047 31 62 0.0 4.8 0.00 0.00 0.00 62 1015.2
20260902033546 31 0 0.0 4.8 0.00 0.00 0.00 62 1015.1
20260902033054 31 0 0.0 1.6 0.00 0.00 0.00 61 1015.0
20260902032548 31 0 0.0 3.2 0.00 0.00 0.00 61 1015.0
20260902032046 31 0 0.0 3.2 0.00 0.00 0.00 61 1014.9
20260902031600 31 0 0.0 3.2 0.00 0.00 0.00 61 1014.9
20260902031050 32 0 0.0 3.2 0.00 0.00 0.00 60 1014.7
20260902030550 32 0 0.0 1.6 0.00 0.00 0.00 60 1014.7
20260902030058 32 0 0.0 1.6 0.00 0.00 0.00 60 1014.7
20260902025547 32 0 0.0 0.0 0.00 0.00 0.00 60 1014.6
20260902025049 32 0 0.0 0.0 0.00 0.00 0.00 59 1014.4
20260902024604 32 0 0.0 1.6 0.00 0.00 0.00 59 1014.3
20260902024046 32 0 0.0 1.6 0.00 0.00 0.00 60 1014.2
20260902023546 32 0 0.0 3.2 0.00 0.00 0.00 58 1014.1
20260902023059 32 0 0.0 4.8 0.00 0.00 0.00 58 1014.0
20260902022547 32 60 0.0 4.8 0.00 0.00 0.00 58 1013.9
20260902022049 32 0 0.0 1.6 0.00 0.00 0.00 57 1013.8
20260902021552 32 0 0.0 3.2 0.00 0.00 0.00 57 1013.9
20260902021046 32 0 0.0 9.7 0.00 0.00 0.00 57 1013.7
20260902020547 32 0 0.0 9.7 0.00 0.00 0.00 57 1013.7
20260902020059 33 0 0.0 9.7 0.00 0.00 0.00 56 1013.6
20260902015546 33 0 0.0 4.8 0.00 0.00 0.00 56 1013.6
20260902015046 33 0 0.0 4.8 0.00 0.00 0.00 56 1013.5
20260902014556 33 100 0.0 9.7 0.00 0.00 0.00 55 1013.5
20260902014046 33 0 0.0 9.7 0.00 0.00 0.00 55 1013.5
20260902013547 33 0 0.0 12.9 0.00 0.00 0.00 54 1013.4
20260902013101 33 0 0.0 12.9 0.00 0.00 0.00 54 1013.4
20260902012546 33 0 1.6 12.9 0.00 0.00 0.00 53 1013.3
20260902012046 33 60 1.6 12.9 0.00 0.00 0.00 52 1013.1
20260902011603 34 0 0.0 3.2 0.00 0.00 0.00 50 1013.1
20260902011047 34 0 0.0 3.2 0.00 0.00 0.00 49 1013.0
20260902010546 34 0 0.0 4.8 0.00 0.00 0.00 49 1012.9
20260902005546 34 70 0.0 3.2 0.00 0.00 0.00 49 1012.9
20260902005050 34 0 0.0 3.2 0.00 0.00 0.00 49 1012.9
20260902004601 34 70 0.0 3.2 0.00 0.00 0.00 49 1013.0
20260902004046 35 0 0.0 3.2 0.00 0.00 0.00 49 1013.0
20260902003546 35 0 0.0 1.6 0.00 0.00 0.00 50 1013.1
20260902003128 35 0 0.0 4.8 0.00 0.00 0.00 48 1013.2
20260902002546 35 0 0.0 4.8 0.00 0.00 0.00 49 1013.3
20260902002046 35 71 0.0 3.2 0.00 0.00 0.00 49 1013.1
20260902001559 35 0 0.0 3.2 0.00 0.00 0.00 49 1013.1
20260902001047 35 0 0.0 3.2 0.00 0.00 0.00 48 1013.1
20260902000546 35 71 0.0 3.2 0.00 0.00 0.00 49 1013.1
20260902000100 35 71 0.0 3.2 0.00 0.00 0.00 48 1013.1
20260901235546 35 0 0.0 4.8 0.00 0.00 0.00 48 1013.1
20260901235047 35 0 0.0 6.4 0.00 0.00 0.00 48 1013.1
20260901234603 36 0 1.6 6.4 0.00 0.00 0.00 48 1013.1
20260901234046 36 113 0.0 6.4 0.00 0.00 0.00 47 1013.1
20260901233548 36 118 0.0 4.8 0.00 0.00 0.00 47 1013.1
20260901233100 36 0 1.6 4.8 0.00 0.00 0.00 47 1013.0
20260901232546 36 152 1.6 4.8 0.00 0.00 0.00 47 1013.0
20260901232046 36 83 0.0 3.2 0.00 0.00 0.00 47 1012.9
20260901231602 36 0 0.0 4.8 0.00 0.00 0.00 46 1012.9
20260901231046 36 0 0.0 4.8 0.00 0.00 0.00 46 1012.9
20260901230546 36 83 0.0 3.2 0.00 0.00 0.00 46 1012.8
20260901230058 36 0 0.0 4.8 0.00 0.00 0.00 47 1012.9
20260901225547 36 0 0.0 6.4 0.00 0.00 0.00 45 1013.0
20260901225046 36 83 0.0 6.4 0.00 0.00 0.00 46 1013.0
20260901224556 36 0 0.0 3.2 0.00 0.00 0.00 46 1013.0
20260901224046 36 0 0.0 3.2 0.00 0.00 0.00 45 1013.0
20260901223546 36 0 0.0 4.8 0.00 0.00 0.00 46 1013.0
20260901223052 37 130 0.0 4.8 0.00 0.00 0.00 45 1013.0
20260901222547 37 86 1.6 4.8 0.00 0.00 0.00 44 1012.9
20260901222048 37 88 0.0 4.8 0.00 0.00 0.00 45 1013.0
20260901221609 37 71 0.0 4.8 0.00 0.00 0.00 45 1013.1
20260901221047 37 68 0.0 4.8 0.00 0.00 0.00 44 1013.0
20260901220546 37 68 0.0 9.7 0.00 0.00 0.00 43 1013.0
20260901220059 37 0 3.2 9.7 0.00 0.00 0.00 43 1013.0
20260901215547 37 55 0.0 11.3 0.00 0.00 0.00 43 1012.9
20260901215047 37 0 1.6 11.3 0.00 0.00 0.00 43 1013.0
20260901214556 37 54 0.0 11.3 0.00 0.00 0.00 43 1013.1
20260901214046 37 63 1.6 11.3 0.00 0.00 0.00 43 1013.1
20260901213546 37 58 1.6 9.7 0.00 0.00 0.00 45 1013.1
20260901213053 37 0 0.0 9.7 0.00 0.00 0.00 46 1013.1
20260901212546 37 62 1.6 6.4 0.00 0.00 0.00 45 1013.1
20260901212047 37 107 0.0 3.2 0.00 0.00 0.00 46 1013.3
20260901211557 37 0 0.0 4.8 0.00 0.00 0.00 45 1013.3
20260901211046 37 0 0.0 4.8 0.00 0.00 0.00 48 1013.4
20260901210546 37 58 1.6 4.8 0.00 0.00 0.00 46 1013.5
20260901210128 37 57 0.0 4.8 0.00 0.00 0.00 48 1013.6
20260901205547 37 0 0.0 3.2 0.00 0.00 0.00 47 1013.5
20260901205048 36 0 0.0 3.2 0.00 0.00 0.00 49 1013.7
20260901204556 36 0 0.0 4.8 0.00 0.00 0.00 49 1013.8
20260901204046 36 57 0.0 4.8 0.00 0.00 0.00 49 1013.9
20260901203547 36 57 0.0 4.8 0.00 0.00 0.00 48 1014.0
20260901203052 36 0 1.6 4.8 0.00 0.00 0.00 48 1014.1
20260901202547 36 0 1.6 4.8 0.00 0.00 0.00 49 1014.1
20260901202050 36 57 0.0 4.8 0.00 0.00 0.00 49 1014.2
20260901201603 36 56 1.6 4.8 0.00 0.00 0.00 49 1014.3
20260901201047 36 0 0.0 4.8 0.00 0.00 0.00 49 1014.4
20260901200548 36 0 1.6 4.8 0.00 0.00 0.00 48 1014.4
20260901200058 36 0 1.6 6.4 0.00 0.00 0.00 49 1014.5
20260901195546 36 0 1.6 6.4 0.00 0.00 0.00 48 1014.6
20260901195047 36 57 0.0 6.4 0.00 0.00 0.00 50 1014.6
20260901194604 36 56 1.6 6.4 0.00 0.00 0.00 46 1014.7
20260901194046 36 58 0.0 6.4 0.00 0.00 0.00 49 1014.7
20260901193548 36 0 0.0 3.2 0.00 0.00 0.00 50 1014.7
20260901193050 36 0 0.0 6.4 0.00 0.00 0.00 49 1014.7
20260901192547 36 72 1.6 6.4 0.00 0.00 0.00 48 1014.8
20260901192047 36 0 1.6 4.8 0.00 0.00 0.00 49 1014.8
20260901191609 36 0 1.6 11.3 0.00 0.00 0.00 49 1015.0
20260901191046 36 0 3.2 11.3 0.00 0.00 0.00 48 1015.0
20260901190546 36 70 0.0 6.4 0.00 0.00 0.00 49 1015.1
20260901190124 36 69 1.6 6.4 0.00 0.00 0.00 49 1015.0
20260901185547 36 70 0.0 11.3 0.00 0.00 0.00 50 1015.2
20260901185046 35 68 1.6 11.3 0.00 0.00 0.00 50 1015.3
20260901184600 35 82 1.6 11.3 0.00 0.00 0.00 53 1015.5
20260901184046 35 58 3.2 11.3 0.00 0.00 0.00 51 1015.5
20260901183546 35 64 3.2 12.9 0.00 0.00 0.00 51 1015.6
20260901183106 35 61 4.8 12.9 0.00 0.00 0.00 50 1015.7
20260901182546 35 52 3.2 12.9 0.00 0.00 0.00 50 1015.8
20260901182046 35 68 3.2 9.7 0.00 0.00 0.00 52 1016.0
20260901181600 35 60 1.6 9.7 0.00 0.00 0.00 55 1016.0
20260901181045 35 0 0.0 9.7 0.00 0.00 0.00 55 1016.2
20260901180545 35 58 0.0 9.7 0.00 0.00 0.00 54 1016.2
20260901180055 35 58 1.6 9.7 0.00 0.00 0.00 53 1016.2
20260901175548 34 0 0.0 9.7 0.00 0.00 0.00 55 1016.3
20260901175046 34 49 1.6 9.7 0.00 0.00 0.00 54 1016.4
20260901174555 34 76 1.6 11.3 0.00 0.00 0.00 55 1016.7
20260901174046 34 0 3.2 11.3 0.00 0.00 0.00 54 1016.6
20260901173546 34 0 1.6 9.7 0.00 0.00 0.00 54 1016.7
20260901173102 33 62 1.6 9.7 0.00 0.00 0.00 54 1016.8
20260901172546 33 56 0.0 9.7 0.00 0.00 0.00 55 1016.8
20260901172046 33 59 1.6 11.3 0.00 0.00 0.00 56 1016.9
20260901171635 33 55 1.6 11.3 0.00 0.00 0.00 56 1017.0
20260901171046 33 53 3.2 11.3 0.00 0.00 0.00 57 1017.1
20260901170546 33 62 3.2 6.4 0.00 0.00 0.00 57 1017.2
20260901170107 33 53 1.6 9.7 0.00 0.00 0.00 60 1017.2
20260901165549 32 60 0.0 9.7 0.00 0.00 0.00 61 1017.3
20260901165049 32 0 0.0 9.7 0.00 0.00 0.00 61 1017.2
20260901164618 32 61 0.0 6.4 0.00 0.00 0.00 63 1017.3
20260901164046 32 0 1.6 6.4 0.00 0.00 0.00 63 1017.3
20260901163546 32 0 0.0 9.7 0.00 0.00 0.00 66 1017.2
20260901163114 31 0 1.6 9.7 0.00 0.00 0.00 65 1017.2
20260901162545 31 55 0.0 6.4 0.00 0.00 0.00 67 1017.3
20260901162046 31 57 0.0 6.4 0.00 0.00 0.00 67 1017.3
20260901161608 31 0 0.0 6.4 0.00 0.00 0.00 66 1017.6
20260901161046 31 53 1.6 6.4 0.00 0.00 0.00 68 1017.7
20260901160546 31 64 0.0 4.8 0.00 0.00 0.00 69 1017.7
20260901155549 30 0 0.0 4.8 0.00 0.00 0.00 70 1017.6
20260901155049 30 65 0.0 4.8 0.00 0.00 0.00 71 1017.6
20260901154558 30 0 0.0 4.8 0.00 0.00 0.00 71 1017.7
20260901154045 30 0 1.6 4.8 0.00 0.00 0.00 73 1017.7
20260901153547 30 66 0.0 3.2 0.00 0.00 0.00 75 1017.6
20260901153057 30 0 0.0 3.2 0.00 0.00 0.00 76 1017.6
20260901152546 29 0 0.0 1.6 0.00 0.00 0.00 77 1017.5
20260901152046 29 0 0.0 3.2 0.00 0.00 0.00 77 1017.4
20260901151607 28 0 0.0 3.2 0.00 0.00 0.00 77 1017.4
20260901151046 28 0 0.0 0.0 0.00 0.00 0.00 79 1017.4
20260901150545 28 0 0.0 3.2 0.00 0.00 0.00 79 1017.4
20260901150056 28 0 0.0 3.2 0.00 0.00 0.00 81 1017.4
20260901145546 28 66 0.0 3.2 0.00 0.00 0.00 81 1017.6
20260901145047 28 0 0.0 3.2 0.00 0.00 0.00 82 1017.7
20260901144601 28 0 0.0 1.6 0.00 0.00 0.00 82 1017.7
20260901144046 27 0 0.0 1.6 0.00 0.00 0.00 83 1017.7
20260901143545 27 0 0.0 0.0 0.00 0.00 0.00 83 1017.9
20260901143056 27 0 0.0 0.0 0.00 0.00 0.00 84 1017.8
20260901142547 27 0 0.0 0.0 0.00 0.00 0.00 84 1017.7
20260901142046 27 0 0.0 0.0 0.00 0.00 0.00 85 1017.8
20260901141559 27 0 0.0 1.6 0.00 0.00 0.00 86 1017.8
20260901141046 27 0 0.0 1.6 0.00 0.00 0.00 86 1017.9
20260901140545 26 0 0.0 0.0 0.00 0.00 0.00 86 1018.0
20260901135545 26 0 0.0 3.2 0.00 0.00 0.00 87 1017.9
20260901135046 26 0 0.0 3.2 0.00 0.00 0.00 88 1017.9
20260901134603 26 0 0.0 0.0 0.00 0.00 0.00 89 1017.7
20260901134045 26 0 0.0 0.0 0.00 0.00 0.00 89 1017.6
20260901133546 25 0 0.0 0.0 0.00 0.00 0.00 90 1017.6
20260901133105 25 0 0.0 0.0 0.00 0.00 0.00 90 1017.6
20260901132548 25 0 0.0 0.0 0.00 0.00 0.00 90 1017.5
20260901132046 25 0 0.0 0.0 0.00 0.00 0.00 90 1017.6
20260901131602 25 0 0.0 0.0 0.00 0.00 0.00 90 1017.5
20260901131047 25 0 0.0 0.0 0.00 0.00 0.00 90 1017.4
20260901130546 25 0 0.0 0.0 0.00 0.00 0.00 90 1017.5
20260901130058 25 0 0.0 0.0 0.00 0.00 0.00 91 1017.3
20260901125545 24 0 0.0 0.0 0.00 0.00 0.00 91 1017.3
20260901125045 24 0 0.0 0.0 0.00 0.00 0.00 90 1017.2
20260901124556 24 0 0.0 0.0 0.00 0.00 0.00 90 1017.2
20260901124045 24 0 0.0 0.0 0.00 0.00 0.00 90 1017.2
20260901123545 24 0 0.0 0.0 0.00 0.00 0.00 90 1017.0
20260901123055 24 0 0.0 0.0 0.00 0.00 0.00 89 1017.0
20260901122546 24 0 0.0 0.0 0.00 0.00 0.00 89 1017.0
20260901122045 24 0 0.0 0.0 0.00 0.00 0.00 89 1017.0
20260901121557 24 0 0.0 0.0 0.00 0.00 0.00 89 1016.9
20260901121046 25 0 0.0 0.0 0.00 0.00 0.00 89 1016.9
20260901120547 25 0 0.0 0.0 0.00 0.00 0.00 89 1017.0
20260901120056 25 0 0.0 0.0 0.00 0.00 0.00 88 1016.9
20260901115546 25 0 0.0 0.0 0.00 0.00 0.00 88 1017.0
20260901115049 25 0 0.0 0.0 0.00 0.00 0.00 88 1016.8
20260901114556 25 0 0.0 0.0 0.00 0.00 0.00 88 1016.8
20260901114046 25 0 0.0 0.0 0.00 0.00 0.00 88 1016.8
20260901113546 25 0 0.0 0.0 0.00 0.00 0.00 88 1016.8
20260901113051 25 0 0.0 0.0 0.00 0.00 0.00 87 1016.7
20260901112545 25 0 0.0 0.0 0.00 0.00 0.00 88 1016.7
20260901112046 25 0 0.0 0.0 0.00 0.00 0.00 87 1016.7
20260901111609 25 0 0.0 0.0 0.00 0.00 0.00 87 1016.6
20260901111047 25 0 0.0 0.0 0.00 0.00 0.00 87 1016.6
20260901110546 25 0 0.0 0.0 0.00 0.00 0.00 87 1016.6
20260901110058 26 0 0.0 0.0 0.00 0.00 0.00 87 1016.7
20260901105546 26 0 0.0 0.0 0.00 0.00 0.00 86 1016.5
20260901105046 26 0 0.0 0.0 0.00 0.00 0.00 86 1016.6
20260901104558 26 0 0.0 0.0 0.00 0.00 0.00 85 1016.5
20260901104046 26 0 0.0 1.6 0.00 0.00 0.00 85 1016.5
20260901103544 26 0 0.0 1.6 0.00 0.00 0.00 85 1016.5
20260901103057 26 0 0.0 1.6 0.00 0.00 0.00 85 1016.5
20260901102546 26 0 0.0 0.0 0.00 0.00 0.00 84 1016.4
20260901102046 26 0 0.0 3.2 0.00 0.00 0.00 85 1016.4
20260901101559 26 0 0.0 3.2 0.00 0.00 0.00 84 1016.5
20260901101046 26 0 0.0 3.2 0.00 0.00 0.00 84 1016.4
20260901100547 26 0 0.0 0.0 0.00 0.00 0.00 84 1016.4
20260901100100 26 0 0.0 0.0 0.00 0.00 0.00 84 1016.5
20260901095548 26 0 0.0 0.0 0.00 0.00 0.00 84 1016.6
20260901095047 26 0 0.0 0.0 0.00 0.00 0.00 84 1016.6
20260901094559 27 0 0.0 0.0 0.00 0.00 0.00 84 1016.6
20260901094046 27 0 0.0 3.2 0.00 0.00 0.00 84 1016.7
20260901093547 27 0 0.0 3.2 0.00 0.00 0.00 84 1016.7
20260901093058 27 0 0.0 3.2 0.00 0.00 0.00 84 1016.7
20260901092548 27 0 0.0 3.2 0.00 0.00 0.00 84 1016.8
20260901092048 27 0 0.0 3.2 0.00 0.00 0.00 84 1016.8
20260901091604 27 0 0.0 3.2 0.00 0.00 0.00 84 1016.8
20260901091047 27 66 0.0 3.2 0.00 0.00 0.00 83 1016.9
20260901090544 27 0 0.0 0.0 0.00 0.00 0.00 83 1016.9
20260901090100 27 0 0.0 3.2 0.00 0.00 0.00 83 1016.7
20260901085547 27 0 0.0 3.2 0.00 0.00 0.00 82 1016.7
20260901085047 27 0 0.0 0.0 0.00 0.00 0.00 82 1016.6
20260901084557 27 0 0.0 1.6 0.00 0.00 0.00 82 1016.6
20260901084047 27 0 0.0 1.6 0.00 0.00 0.00 81 1016.5
20260901083547 27 0 0.0 3.2 0.00 0.00 0.00 81 1016.5
20260901083059 27 0 0.0 3.2 0.00 0.00 0.00 81 1016.6
20260901082547 27 0 0.0 3.2 0.00 0.00 0.00 80 1016.6